Simultaneous Nadir Overpasses (SNOs) Predictions

Prediction of SNOs between FY3D and NOAA-19 Satellite Orbit:

Table of predicted SNOs for the next 14.0 days since TLE Epoch: 6/12/2021
Index Date (FY3D) Time (FY3D) Lat,Lon (FY3D) SZA (FY3D ) Date (NOAA-19) Time (NOAA-19) Lat,Lon (NOAA-19) SZA (NOAA-19 ) Distance(km) Time Diff (sec)
1 06/19/2021 15:00:10 78.31, -68.62 55.94 06/19/2021 14:59:00 78.31, -70.44 56.13 41.15 70
2 06/19/2021 15:50:58 -78.47, 97.78 123.84 06/19/2021 15:49:54 -78.46, 97.79 123.83 1.70 64
3 06/19/2021 16:41:43 78.47, -94.90 56.16 06/19/2021 16:40:56 78.46, -94.93 56.18 1.17 47
4 06/19/2021 17:32:27 -78.47, 72.40 123.84 06/19/2021 17:31:54 -78.47, 72.37 123.83 0.84 33
5 06/19/2021 18:23:12 78.47,-120.29 56.17 06/19/2021 18:22:56 78.47,-120.35 56.18 1.49 16
6 06/19/2021 19:13:56 -78.48, 47.02 123.84 06/19/2021 19:13:54 -78.48, 46.95 123.82 1.52 2
7 06/19/2021 20:04:41 78.48,-145.67 56.17 06/19/2021 20:04:56 78.49,-145.78 56.18 2.59 15
8 06/19/2021 20:55:25 -78.48, 21.63 123.83 06/19/2021 20:55:54 -78.49, 21.53 123.82 2.76 29
9 06/19/2021 21:46:11 78.52,-171.28 56.23 06/19/2021 21:46:56 78.50,-171.20 56.18 2.85 45
10 06/19/2021 22:36:55 -78.52, -3.98 123.78 06/19/2021 22:37:54 -78.50, -3.89 123.82 2.52 59
11 06/19/2021 23:27:42 78.59, 162.87 56.34 06/19/2021 23:28:55 78.54, 163.62 56.20 17.41 73



Historial Predications of SNOs between FY3D and NOAA-19
